Home   Weather   Ternitz   Past weeks

Flag for Austria Past Weather in Ternitz, Lower Austria, Austria — Yesterday and Last 2 Weeks

Now
21 °F

Cold.


Feels Like: 21 °F
Forecast: 4 / 26 °F
Wind: 2 mph from East

Location: Eisenstadt

Current Time: Jan 23, 2017 at 5:33:33 am

Latest Report: Jan 23, 2017 at 4:00 am


Visibility: N/A

Pressure: 30.43 "Hg

Humidity: 83%

Dew Point: 17 °F

Location of TernitzLocation

Past Weather in Ternitz — Graph

°F

Ternitz Temperature Yesterday

Maximum temperature yesterday: 35 °F (at 2:00 pm)
Minimum temperature yesterday: 19 °F (at 7:00 am)
Average temperature yesterday: 25 °F

High & Low Weather Summary for the Past Weeks

 TemperatureHumidityPressure
High44 °F (Jan 12, 2:00 pm)94% (Jan 13, 10:00 am)30.70 "Hg (Jan 13, 10:00 am)
Low7 °F (Jan 11, 5:00 am)48% (Jan 13, 2:00 pm)29.44 "Hg (Jan 13, 6:00 am)
Average26 °F73%30.25 "Hg
* Reported Jan 8 4:00 am — Jan 23 4:00 am, Ternitz, Weather by CustomWeather, © 2017

Note: Actual official high and low records may vary slightly from our data, if they occured in-between our weather recording intervals... More about our weather records

Advertising

Ternitz Weather History for the Previous 24 Hours

Scroll right to see more
 ConditionsComfort  
Time TempWeatherWind HumidityBarometerVisibility
4:00 am
Mon, Jan 23
21 °FCold.2 mph83%30.43 "HgN/A
3:00 am21 °FCold.5 mph85%30.44 "HgN/A
2:00 am22 °FCold.6 mph82%30.44 "HgN/A
1:00 am23 °FClear.6 mph80%30.45 "Hg6 mi
12:00 am24 °FCold.7 mph78%30.46 "HgN/A
11:00 pm
Sun, Jan 22
24 °FCold.7 mph77%30.47 "HgN/A
10:00 pm25 °FClear.6 mph76%30.47 "Hg6 mi
9:00 pm25 °FChilly.6 mph76%30.48 "HgN/A
8:00 pm26 °FChilly.5 mph73%30.47 "HgN/A
7:00 pm26 °FClear.3 mph71%30.48 "Hg6 mi
6:00 pm28 °FChilly.3 mph69%30.48 "HgN/A
5:00 pm30 °FChilly.5 mph63%30.47 "HgN/A
4:00 pm33 °FSunny.6 mph57%30.47 "Hg6 mi
3:00 pm34 °FChilly.8 mph49%30.47 "HgN/A
2:00 pm35 °FChilly.8 mph52%30.47 "HgN/A
1:00 pm34 °FFog.8 mph58%30.49 "Hg1 mi
12:00 pm32 °FChilly.6 mph68%30.52 "HgN/A
11:00 am28 °FChilly.5 mph77%30.55 "HgN/A
10:00 am23 °FFog.5 mph81%30.55 "Hg1 mi
9:00 am20 °FCold.3 mph87%30.56 "HgN/A
8:00 am19 °FCold.3 mph89%30.56 "HgN/A
7:00 am19 °FFog.3 mph89%30.55 "Hg1 mi
6:00 am19 °FFog.5 mph88%30.55 "Hg1 mi
5:00 am20 °FCold.5 mph87%30.55 "HgN/A
Weather by CustomWeather, © 2017

See weather overviewHow to use our weather pages